Wind_Speed
49 51 53 54 57 60 64 65 65 61 58 42 51 60 60 56 61 62 68 71 68 57 58 61 70 62 60 58 57 54 53 51 49 50 55 56 58 56 51 49 45 41 37 33
50 53 56 59 59 60 63 67 68 68 66 50 62 64 65 61 62 60 63 66 73 71 60 63 67 64 65 59 57 56 54 53 51 53 57 58 61 59 56 47 41 41 33 33
49 53 55 57 61 64 64 64 65 67 69 64 71 74 67 66 66 63 59 62 63 72 72 69 70 67 65 61 58 59 56 56 55 55 57 61 61 56 44 41 38 38 30 34
53 51 46 53 57 58 65 63 65 69 70 73 70 71 74 67 66 65 60 60 61 62 77 76 71 70 67 63 63 61 56 55 56 57 59 55 53 40 35 35 36 34 31 34
41 33 33 30 35 30 43 44 46 61 66 72 67 68 79 69 68 64 63 58 58 59 51 71 74 70 69 66 63 58 54 54 57 56 53 45 36 32 30 32 33 30 34 32
27 21 26 26 25 26 29 34 33 39 41 53 76 71 81 64 44 54 43 58 58 57 55 56 63 70 67 68 61 58 53 55 57 51 43 37 30 29 29 32 31 32 31 29
23 22 19 26 21 19 23 25 28 32 40 52 52 55 68 54 45 41 50 60 58 54 50 50 51 53 67 66 56 51 51 56 49 39 35 28 27 28 30 30 30 30 27 28
21 20 22 28 21 19 21 22 26 29 30 33 42 54 49 68 46 29 55 57 54 50 44 44 49 50 54 61 53 51 54 48 36 31 28 26 26 27 28 28 27 27 27 26
23 23 21 20 21 21 18 22 21 26 32 34 36 37 37 30 47 44 35 45 53 48 44 42 44 46 45 49 52 53 47 34 29 29 26 25 26 27 27 26 27 25 27 24
20 21 21 18 21 21 20 14 23 26 34 29 23 32 29 36 35 38 36 45 48 47 42 42 41 38 41 42 43 40 33 30 31 28 25 25 24 27 25 25 24 25 24 25
20 21 11 17 20 15 17 16 23 23 16 26 22 27 16 29 43 34 26 47 46 41 43 43 37 34 34 34 34 31 29 30 28 25 25 24 27 26 23 24 24 23 24 25
19 18 17 18 15 21 18 15 18 26 20 25 24 23 36 31 31 41 39 50 42 39 45 42 36 34 32 32 30 28 29 26 25 24 24 25 26 23 23 23 22 21 24 25
16 15 18 14 16 26 22 13 20 17 18 29 31 27 26 29 38 48 49 46 42 43 36 32 37 34 35 33 30 30 27 26 24 22 24 25 24 23 22 20 20 22 23 23
20 18 18 15 17 22 19 10 10 19 19 23 41 25 24 35 30 46 58 53 45 41 28 27 34 36 35 33 32 28 26 24 23 24 24 24 21 20 19 17 20 21 21 23
13 14 13 14 13 14 15 17 16 17 21 26 35 36 27 34 42 28 52 60 54 53 37 31 30 35 35 32 28 27 24 23 22 21 22 21 18 18 16 18 19 19 21 22
20 14 14 12 12 16 18 19 19 23 26 24 37 42 28 25 36 44 54 57 57 52 41 34 34 36 35 30 28 25 23 21 19 19 21 20 18 15 16 18 18 19 20 21
20 22 19 18 19 20 14 18 23 24 21 31 42 40 40 27 25 39 55 43 49 49 44 39 40 37 33 29 27 24 22 18 17 18 19 19 15 15 17 17 18 18 19 18
21 21 15 16 10 10 13 7 9 19 22 27 33 48 50 59 43 46 55 52 44 48 46 44 40 35 32 28 26 21 19 16 15 16 17 15 14 16 16 17 16 17 16 14
20 20 14 14 7 7 13 14 11 13 15 25 21 23 30 64 53 47 54 55 41 53 52 43 37 34 30 27 26 20 16 15 15 16 16 15 15 16 15 15 15 16 16 15
21 20 14 15 13 10 12 16 15 17 6 17 19 20 28 40 49 46 52 60 50 45 53 47 36 32 28 28 26 20 17 16 16 15 15 15 15 14 14 14 14 13 12 13
16 17 18 18 16 18 18 19 23 15 14 7 13 19 25 35 50 51 53 50 53 49 48 47 40 34 30 29 25 19 18 16 15 15 16 14 12 12 13 13 12 13 12 12
15 16 20 23 16 14 22 23 22 17 16 12 15 15 23 39 54 50 47 51 54 56 48 49 44 37 31 29 24 20 18 15 16 15 15 12 11 11 12 11 12 12 8 7
15 18 20 24 25 27 27 24 19 20 14 11 13 16 23 36 53 46 49 55 57 53 53 48 44 38 32 28 26 21 17 17 16 15 14 11 11 10 10 10 10 6 6 6
17 20 21 24 26 29 32 27 19 12 13 13 16 15 23 37 51 47 47 56 55 51 51 48 41 38 32 29 25 20 19 16 14 15 12 12 10 9 9 8 6 5 7 9
17 18 21 24 27 29 29 32 15 9 10 14 18 20 28 42 51 47 54 56 53 51 48 45 41 35 31 28 24 21 18 15 15 16 12 12 9 7 7 6 5 6 9 10
19 19 22 24 28 29 28 28 5 5 9 13 17 27 35 45 53 45 59 55 51 49 47 43 39 36 31 26 23 21 19 18 17 16 13 12 8 7 7 6 5 6 9 9
Wind_Direction
267 262 258 257 257 258 256 257 255 252 251 254 243 254 247 244 241 239 239 236 231 235 236 240 243 248 252 254 258 262 267 274 279 285 285 290 296 301 301 297 300 304 306 307
267 264 261 259 256 254 253 254 255 254 251 237 248 248 248 246 247 239 241 242 240 230 234 238 243 246 248 252 258 262 267 273 279 282 283 289 296 296 296 291 296 301 302 303
275 274 271 267 263 257 256 256 252 250 246 242 248 250 247 245 246 244 239 240 242 242 234 235 240 243 250 253 258 261 267 273 279 281 281 286 291 290 284 288 297 296 302 298
286 287 284 275 271 268 261 259 255 253 244 246 244 248 244 245 244 246 241 241 240 240 239 239 241 248 248 253 257 263 269 274 276 279 284 290 284 277 282 288 292 294 298 293
291 280 269 275 274 271 269 266 262 253 244 243 235 238 242 242 243 243 243 240 241 244 244 240 241 243 248 253 256 263 267 271 273 280 285 280 276 278 282 286 291 294 292 290
299 273 273 279 266 268 270 267 267 257 252 246 237 235 238 234 240 245 242 241 236 239 240 241 244 246 245 248 253 258 262 266 274 278 272 269 271 273 280 289 291 290 290 283
262 255 254 270 282 268 280 262 268 252 245 246 237 235 236 228 220 224 234 240 239 237 241 241 243 245 243 246 247 250 258 266 270 265 260 258 263 274 282 287 287 285 281 283
273 256 259 265 269 277 279 251 251 260 246 250 237 235 236 232 219 223 236 238 240 237 237 240 242 250 248 241 240 248 255 261 257 251 246 255 265 274 280 281 281 276 282 285
272 267 261 273 270 284 301 248 255 256 255 238 226 225 228 219 229 217 226 234 238 233 233 237 236 243 243 233 239 244 250 249 239 239 247 257 265 270 273 273 266 278 282 284
276 281 268 266 273 276 293 270 242 243 252 251 267 227 211 211 207 210 210 229 235 230 229 232 230 227 227 228 233 237 237 234 235 239 249 256 267 266 266 261 270 276 281 288
293 280 280 258 281 288 284 275 243 247 247 241 247 206 199 221 224 188 201 222 231 230 222 225 222 221 222 222 223 227 228 228 233 242 249 259 260 260 255 261 269 276 282 289
285 296 287 270 256 272 277 286 255 242 248 220 246 187 196 188 193 199 206 219 216 217 213 220 217 213 211 216 219 220 220 224 233 241 252 252 250 249 253 263 271 275 285 288
279 282 280 291 265 226 254 239 263 253 265 203 217 192 159 195 212 188 201 196 202 206 198 203 207 206 209 211 212 214 216 223 235 244 244 244 241 246 253 262 267 281 283 290
289 293 277 274 257 293 303 254 260 242 239 225 214 223 168 145 195 205 205 189 193 196 208 203 197 198 202 204 208 212 216 226 234 241 236 233 241 248 256 261 275 277 287 291
323 317 281 275 262 256 271 268 265 245 247 242 222 234 226 171 167 182 211 201 205 212 210 205 200 196 197 202 205 210 217 223 228 229 230 233 244 251 255 268 272 281 289 291
331 298 285 267 240 254 255 254 258 248 236 245 232 234 234 244 191 201 192 197 207 211 205 198 190 190 197 197 201 203 210 216 223 232 233 237 245 248 259 269 272 283 291 295
328 326 328 315 314 297 267 233 231 231 241 237 225 228 231 242 246 214 196 191 199 205 203 188 186 191 192 194 197 199 205 212 224 232 235 238 244 249 264 265 275 287 293 299
327 323 315 333 325 321 322 284 293 257 235 234 230 218 226 226 222 207 192 193 201 195 192 185 188 189 189 189 190 198 203 212 221 226 228 239 239 256 260 268 280 287 299 294
322 335 331 332 318 352 323 347 332 305 293 242 243 225 222 222 206 200 189 187 183 188 185 185 185 184 189 189 190 196 204 212 219 222 230 235 243 255 261 272 282 296 299 288
322 323 327 344 323 315 315 321 311 313 322 229 234 226 214 208 208 207 188 188 188 186 190 189 193 198 192 191 192 199 206 216 219 220 230 231 247 254 267 277 287 297 284 278
322 319 323 317 315 314 290 290 308 304 302 206 226 214 204 204 196 196 183 183 194 191 192 194 200 196 199 191 195 198 208 216 215 225 226 234 245 257 269 280 287 286 288 285
341 329 328 332 328 312 302 308 306 296 288 271 222 212 202 202 198 197 182 183 190 193 190 193 196 199 199 191 198 201 208 210 220 226 223 237 243 258 272 286 287 288 293 300
342 342 332 339 333 330 323 325 309 303 291 249 208 215 203 200 195 189 184 182 189 188 188 193 196 198 190 190 200 201 204 212 223 225 221 235 243 260 278 282 280 280 311 330
331 335 335 325 325 322 322 327 319 297 280 223 215 222 186 194 192 189 184 183 187 183 186 190 190 190 187 194 199 200 206 217 225 220 220 233 243 260 276 270 254 289 324 330
321 327 327 321 317 325 316 326 335 267 274 207 211 190 175 188 189 184 180 184 185 181 185 188 188 191 190 197 201 204 208 218 221 215 221 229 240 261 266 239 260 307 329 330
311 316 314 322 319 331 324 342 11 252 218 201 192 180 174 185 183 179 178 184 183 185 186 189 194 194 198 199 202 206 206 215 216 210 217 224 232 245 232 231 283 325 335 334
Height
5709 5709 5706 5704 5704 5710 5707 5708 5713 5721 5725 5724 5725 5727 5740 5749 5748 5753 5759 5764 5771 5778 5785 5788 5784 5793 5797 5801 5807 5809 5810 5812 5811 5812 5810 5809 5807 5807 5808 5805 5804 5801 5799 5797
5695 5691 5689 5689 5691 5693 5692 5693 5698 5703 5707 5706 5710 5712 5725 5733 5734 5742 5748 5754 5758 5765 5773 5775 5776 5781 5784 5792 5797 5800 5801 5802 5804 5805 5804 5803 5801 5800 5801 5799 5798 5795 5794 5790
5677 5673 5671 5671 5671 5675 5676 5677 5679 5682 5686 5686 5698 5694 5708 5717 5722 5728 5736 5741 5746 5753 5762 5764 5763 5770 5776 5782 5788 5790 5792 5794 5796 5798 5796 5798 5794 5792 5792 5792 5791 5789 5787 5783
5659 5652 5650 5649 5651 5651 5651 5656 5656 5660 5662 5670 5685 5675 5693 5704 5710 5715 5724 5728 5734 5739 5742 5752 5761 5764 5768 5773 5777 5781 5784 5787 5787 5788 5788 5789 5786 5785 5785 5785 5784 5782 5780 5777
5644 5640 5638 5637 5637 5637 5635 5636 5636 5639 5642 5653 5655 5662 5676 5692 5696 5704 5711 5718 5723 5727 5734 5742 5744 5751 5760 5764 5769 5773 5776 5778 5780 5780 5781 5782 5779 5779 5779 5778 5778 5776 5774 5772
5632 5630 5631 5629 5628 5628 5627 5623 5625 5627 5630 5626 5640 5649 5660 5674 5686 5693 5700 5703 5711 5717 5722 5728 5735 5744 5749 5754 5761 5764 5767 5770 5771 5774 5774 5774 5773 5773 5773 5772 5770 5769 5768 5766
5625 5627 5626 5623 5621 5622 5618 5617 5617 5617 5618 5612 5630 5633 5641 5661 5672 5678 5683 5692 5701 5708 5714 5720 5725 5729 5736 5744 5753 5757 5759 5762 5765 5766 5766 5766 5767 5766 5767 5765 5765 5763 5763 5761
5618 5619 5617 5614 5616 5615 5613 5613 5612 5607 5611 5615 5622 5618 5630 5647 5661 5667 5671 5684 5689 5700 5707 5710 5715 5720 5723 5733 5743 5747 5751 5755 5757 5757 5759 5759 5760 5761 5760 5760 5759 5758 5757 5757
5612 5610 5610 5610 5610 5609 5607 5603 5607 5604 5602 5600 5601 5612 5628 5639 5647 5656 5664 5672 5680 5689 5696 5701 5705 5711 5716 5724 5733 5739 5743 5746 5748 5750 5752 5753 5754 5755 5755 5755 5753 5753 5752 5752
5607 5602 5602 5604 5603 5603 5601 5601 5597 5600 5597 5597 5600 5606 5615 5630 5637 5649 5655 5663 5671 5679 5687 5691 5697 5704 5710 5716 5724 5730 5734 5738 5741 5743 5745 5747 5748 5749 5749 5749 5749 5748 5747 5746
5601 5599 5598 5598 5597 5598 5600 5595 5594 5594 5594 5596 5596 5603 5615 5627 5632 5643 5650 5655 5665 5671 5677 5682 5690 5696 5703 5711 5716 5721 5726 5730 5734 5736 5739 5741 5743 5743 5744 5744 5744 5743 5742 5741
5596 5594 5591 5591 5595 5596 5592 5590 5590 5590 5590 5595 5596 5595 5603 5617 5625 5635 5638 5646 5656 5663 5668 5675 5683 5690 5698 5703 5709 5714 5719 5724 5727 5731 5733 5736 5737 5738 5739 5739 5739 5738 5738 5736
5592 5590 5587 5586 5590 5585 5585 5586 5587 5586 5585 5588 5588 5590 5606 5611 5619 5625 5628 5638 5648 5655 5662 5669 5676 5684 5691 5697 5704 5709 5714 5718 5722 5725 5729 5730 5732 5733 5734 5735 5734 5734 5733 5731
5587 5586 5583 5582 5580 5580 5581 5581 5583 5583 5583 5586 5581 5587 5589 5586 5618 5624 5622 5627 5639 5648 5658 5664 5671 5678 5686 5693 5699 5704 5709 5714 5718 5721 5723 5726 5727 5729 5730 5730 5730 5729 5728 5726
5586 5583 5579 5577 5575 5576 5580 5580 5580 5579 5581 5579 5576 5577 5582 5584 5580 5596 5608 5621 5631 5639 5653 5661 5667 5674 5681 5688 5695 5700 5706 5710 5713 5716 5719 5722 5723 5725 5726 5726 5725 5724 5723 5721
5584 5581 5577 5574 5573 5571 5572 5575 5576 5575 5577 5576 5573 5569 5578 5580 5586 5593 5599 5613 5623 5634 5647 5656 5663 5670 5677 5685 5691 5697 5702 5706 5709 5712 5715 5718 5720 5721 5721 5722 5721 5720 5718 5716
5584 5579 5576 5573 5570 5567 5567 5566 5565 5566 5573 5570 5563 5568 5570 5578 5583 5585 5592 5606 5617 5630 5642 5652 5660 5667 5675 5682 5689 5694 5698 5702 5705 5708 5711 5714 5716 5717 5717 5717 5717 5716 5714 5712
5582 5577 5574 5571 5567 5565 5564 5562 5562 5561 5562 5562 5561 5560 5562 5568 5569 5576 5589 5600 5611 5623 5636 5647 5657 5664 5672 5679 5686 5691 5695 5699 5702 5705 5709 5711 5713 5714 5714 5714 5713 5711 5710 5709
5580 5576 5572 5569 5566 5563 5560 5559 5558 5555 5553 5551 5554 5557 5557 5556 5565 5572 5582 5595 5607 5618 5632 5643 5653 5661 5669 5676 5683 5689 5692 5696 5699 5703 5706 5708 5710 5710 5710 5710 5709 5707 5706 5705
5579 5575 5572 5568 5565 5562 5559 5556 5554 5550 5546 5546 5548 5550 5553 5556 5566 5570 5576 5589 5603 5616 5629 5641 5650 5659 5667 5673 5680 5686 5690 5693 5697 5700 5703 5706 5706 5707 5707 5706 5705 5703 5703 5702
5576 5573 5569 5566 5561 5559 5555 5553 5550 5547 5547 5543 5543 5543 5546 5550 5557 5562 5577 5593 5605 5615 5626 5639 5647 5657 5664 5672 5678 5683 5687 5690 5695 5698 5701 5703 5703 5704 5704 5703 5702 5701 5700 5699
5574 5571 5567 5563 5559 5558 5552 5549 5545 5542 5539 5539 5538 5538 5540 5545 5552 5562 5578 5589 5601 5613 5625 5635 5645 5655 5663 5671 5676 5680 5685 5689 5693 5696 5699 5699 5700 5701 5701 5700 5699 5699 5698 5696
5574 5570 5565 5561 5557 5552 5548 5543 5538 5533 5532 5533 5533 5532 5535 5545 5553 5565 5575 5587 5599 5610 5623 5632 5644 5653 5661 5668 5673 5678 5683 5687 5691 5694 5696 5697 5698 5699 5699 5698 5697 5697 5695 5694
5569 5566 5563 5559 5554 5548 5541 5536 5531 5527 5525 5526 5528 5528 5533 5543 5554 5564 5574 5587 5599 5610 5622 5633 5642 5651 5659 5666 5671 5677 5681 5685 5688 5691 5693 5695 5696 5697 5696 5696 5696 5695 5694 5692
5567 5564 5560 5556 5549 5546 5537 5530 5526 5521 5520 5521 5523 5526 5533 5544 5553 5567 5577 5588 5600 5611 5621 5632 5641 5650 5658 5664 5669 5675 5679 5683 5686 5689 5691 5692 5694 5694 5695 5695 5694 5693 5692 5690
5563 5561 5557 5552 5546 5539 5531 5526 5520 5518 5516 5518 5521 5525 5533 5544 5557 5568 5579 5589 5601 5612 5622 5631 5640 5648 5655 5662 5667 5672 5676 5679 5683 5686 5689 5690 5692 5693 5694 5694 5694 5692 5691 5687